Location: Unspecified
(50.6165°N, 0.0000°E)
Time: 02:55:07
(UTC+00:00)

Vanguard 2 Rocket - Visible Passes

Search period start: 05 April 2026 00:00
Search period end: 15 April 2026 00:00
Orbit: 554 x 3286 km, 32.9° (Epoch: 29 March)

Date Brightness Start Highest point End Pass type
(mag) Time Alt. Az. Time Alt. Az. Time Alt. Az.
12 Apr 9.1 21:02:29 10° S 21:02:44 10° S 21:02:44 10° S visible
13 Apr 8.9 19:57:16 10° S 19:59:19 11° S 20:01:10 10° SSE visible
14 Apr 8.8 21:02:45 10° SSW 21:06:10 14° S 21:06:10 14° S visible
